Weather History for College Station, TX

Change the Weather History Date:

Saturday, October 26, 2013

  Actual Average Record
Temperature  
Mean Temperature 67 °F 68 °F  
Max Temperature 81 °F 78 °F 92 °F (1939)
Min Temperature 53 °F 58 °F 38 °F (1957)
Degree Days  
Heating Degree Days 0 2  
Month to date heating degree days 19 20  
Since 1 July heating degree days 19 22  
Cooling Degree Days 2 5  
Month to date cooling degree days 161 193  
Year to date cooling degree days 3194 2989  
Growing Degree Days 16 (Base 50)    
Moisture  
Dew Point 57 °F    
Average Humidity 69    
Maximum Humidity 83    
Minimum Humidity 54    
Precipitation  
Precipitation 0.00 in 0.16 in 3.74 in (1964)
Month to date precipitation 5.70 4.20  
Year to date precipitation 30.62 32.90  
Sea Level Pressure  
Sea Level Pressure 30.16 in    
Wind  
Wind Speed 8 mph (SE)    
Max Wind Speed 17 mph    
Max Gust Speed 22 mph    
Visibility 10 miles    
Events Thunderstorm    
T = Trace of Precipitation, MM = Missing Value Source: NWS Daily Summary

Daily Weather History Graph

Daily Weather History Graph

Search for Another Location

Airport:

Trip Planner

Search our weather history database for the weather conditions in past years. The results will help you decide how hot, cold, wet, or windy it might be!

Date:

Astronomy

Oct. 26, 2013 Rise Set
Actual Time 7:35 AM CDT 6:42 PM CDT
Civil Twilight 7:11 AM CDT 7:07 PM CDT
Nautical Twilight 6:42 AM CDT 7:35 PM CDT
Astronomical Twilight 6:14 AM CDT 8:03 PM CDT
Moon 12:09 AM CDT (10/26) 1:49 PM CDT (10/26)
Length of Visible Light 11h 56m
Length of Day
11h 06m
Waning Gibbous, 53% of the Moon is Illuminated
Oct 26
Waning Gibbous
Oct 26
Last Quarter
Nov 3
New
Nov 9
First Quarter
Nov 17
Full

Hourly Weather History & Observations

Time (CDT) Temp. Dew Point Humidity Pressure Visibility Wind Dir Wind Speed Gust Speed Precip Events Conditions
12:53 AM 60.1 °F 54.0 °F 80% 30.24 in 10.0 mi ESE 5.8 mph - N/A   Clear
1:53 AM 59.0 °F 53.1 °F 81% 30.23 in 10.0 mi East 4.6 mph - N/A   Clear
2:53 AM 57.0 °F 52.0 °F 83% 30.22 in 10.0 mi East 4.6 mph - N/A   Clear
3:53 AM 57.0 °F 51.1 °F 81% 30.20 in 10.0 mi ESE 6.9 mph - N/A   Clear
4:53 AM 55.9 °F 50.0 °F 80% 30.19 in 10.0 mi East 6.9 mph - N/A   Clear
5:53 AM 54.0 °F 48.9 °F 83% 30.20 in 10.0 mi ENE 4.6 mph - N/A   Clear
6:53 AM 54.0 °F 48.9 °F 83% 30.21 in 10.0 mi ENE 6.9 mph - N/A   Clear
7:53 AM 54.0 °F 48.9 °F 83% 30.21 in 10.0 mi East 4.6 mph - N/A   Clear
8:53 AM 57.9 °F 50.0 °F 75% 30.22 in 10.0 mi East 8.1 mph - N/A   Clear
9:53 AM 63.0 °F 55.0 °F 75% 30.24 in 10.0 mi East 5.8 mph - N/A   Clear
10:53 AM 69.1 °F 59.0 °F 70% 30.24 in 10.0 mi SE 5.8 mph - N/A   Overcast
11:53 AM 73.0 °F 61.0 °F 66% 30.23 in 10.0 mi South 11.5 mph - N/A   Clear
12:53 PM 77.0 °F 62.1 °F 60% 30.20 in 10.0 mi SSE 13.8 mph 18.4 mph N/A   Clear
1:53 PM 78.1 °F 62.1 °F 58% 30.17 in 10.0 mi South 12.7 mph - N/A   Clear
2:53 PM 79.0 °F 62.1 °F 56% 30.14 in 10.0 mi South 11.5 mph - N/A   Partly Cloudy
3:53 PM 79.0 °F 62.1 °F 56% 30.11 in 10.0 mi SSE 9.2 mph 20.7 mph N/A   Clear
4:53 PM 79.0 °F 61.0 °F 54% 30.09 in 10.0 mi SSE 10.4 mph - N/A   Partly Cloudy
5:53 PM 77.0 °F 61.0 °F 58% 30.08 in 10.0 mi SSE 10.4 mph - N/A   Scattered Clouds
6:53 PM 73.9 °F 61.0 °F 64% 30.09 in 10.0 mi SSE 5.8 mph - N/A   Scattered Clouds
7:53 PM 73.0 °F 61.0 °F 66% 30.08 in 10.0 mi SSE 10.4 mph - N/A   Mostly Cloudy
8:53 PM 71.1 °F 60.1 °F 68% 30.09 in 10.0 mi SSE 9.2 mph - N/A   Clear
9:53 PM 70.0 °F 61.0 °F 73% 30.09 in 10.0 mi SSE 8.1 mph - N/A   Clear
10:53 PM 69.1 °F 62.1 °F 78% 30.09 in 10.0 mi SSE 9.2 mph - N/A   Clear
11:32 PM 69.8 °F 62.6 °F 78% 30.10 in 10.0 mi SSE 11.5 mph - N/A Thunderstorm Clear
11:53 PM 68.0 °F 62.1 °F 81% 30.08 in 10.0 mi SE 8.1 mph - N/A   Clear